Frenchville, ME

7:12 AM EDT on September 25, 2017 (GMT -0400)
Northern Aroostook Regional

Weather History for KFVE - October, 2012

Change the Weather History Date:

Wednesday, October 3, 2012

  Actual Average Record
Temperature  
Mean Temperature 54 °F 47 °F  
Max Temperature 65 °F 55 °F 78 °F (2005)
Min Temperature 42 °F 38 °F 30 °F (1997)
Degree Days  
Heating Degree Days 11    
Month to date heating degree days 27  
Since 1 July heating degree days 389  
Cooling Degree Days 0    
Month to date cooling degree days 0  
Year to date cooling degree days 203  
Growing Degree Days 6 (Base 50)    
Moisture  
Dew Point 43 °F    
Average Humidity 69    
Maximum Humidity 94    
Minimum Humidity 38    
Precipitation  
Precipitation 0.00 in 0.09 in 0.70 in (2011)
Month to date precipitation T 0.25  
Year to date precipitation 23.88 25.83  
Sea Level Pressure  
Sea Level Pressure 30.13 in    
Wind  
Wind Speed 7 mph (NW)    
Max Wind Speed 15 mph    
Max Gust Speed 21 mph    
Visibility 10 miles    
Events      
T = Trace of Precipitation, MM = Missing Value Source: NWS Daily Summary

Daily Weather History Graph

Daily Weather History Graph

Search for Another Location

Airport or City:

Trip Planner

Search our weather history database for the weather conditions in past years. The results will help you decide how hot, cold, wet, or windy it might be!

Date:

Astronomy

Oct. 03, 2012 Rise Set
Actual Time 6:35 AM EDT 6:07 PM EDT
Civil Twilight 6:04 AM EDT 6:38 PM EDT
Nautical Twilight 5:29 AM EDT 7:13 PM EDT
Astronomical Twilight 4:53 AM EDT 7:49 PM EDT
Moon 7:40 PM EDT (10/3) 10:11 AM EDT (10/3)
Length of Visible Light 12h 33m
Length of Day
11h 32m
Waning Gibbous, 89% of the Moon is Illuminated
Oct 3
Waning Gibbous
Oct 8
Last Quarter
Oct 15
New
Oct 21
First Quarter
Oct 29
Full

Hourly Weather History & Observations

Time (EDT) Temp. Dew Point Humidity Pressure Visibility Wind Dir Wind Speed Gust Speed Precip Events Conditions
12:53 AM 52.0 °F 46.9 °F 83% 30.00 in 10.0 mi West 8.1 mph - N/A   Clear
1:53 AM 52.0 °F 46.9 °F 83% 30.01 in 10.0 mi West 11.5 mph - N/A   Clear
2:53 AM 52.0 °F 46.9 °F 83% 30.02 in 10.0 mi West 8.1 mph - N/A   Clear
3:53 AM 50.0 °F 46.0 °F 86% 30.04 in 10.0 mi WNW 6.9 mph - N/A   Clear
4:53 AM 50.0 °F 46.9 °F 89% 30.06 in 10.0 mi WNW 8.1 mph - N/A   Clear
5:53 AM 48.9 °F 46.0 °F 90% 30.08 in 10.0 mi NW 8.1 mph - N/A   Clear
8:00 AM 50.0 °F 48.2 °F 94% 30.12 in 10.0 mi NW 11.5 mph - N/A   Scattered Clouds
8:12 AM 50.0 °F 48.2 °F 94% 30.13 in 10.0 mi NW 10.4 mph - N/A   Mostly Cloudy
8:53 AM 52.0 °F 46.9 °F 83% 30.14 in 10.0 mi NW 10.4 mph - N/A   Overcast
9:19 AM 53.6 °F 46.4 °F 77% 30.15 in 10.0 mi North 12.7 mph - N/A   Scattered Clouds
9:28 AM 53.6 °F 46.4 °F 77% 30.15 in 10.0 mi NNW 10.4 mph 17.3 mph N/A   Mostly Cloudy
9:53 AM 54.0 °F 45.0 °F 72% 30.15 in 10.0 mi NNW 9.2 mph - N/A   Scattered Clouds
10:53 AM 55.9 °F 43.0 °F 62% 30.16 in 10.0 mi North 10.4 mph - N/A   Clear
11:53 AM 59.0 °F 42.1 °F 53% 30.16 in 10.0 mi NW 5.8 mph - N/A   Clear
12:53 PM 61.0 °F 39.0 °F 44% 30.15 in 10.0 mi NNW 6.9 mph - N/A   Clear
1:53 PM 63.0 °F 39.0 °F 41% 30.14 in 10.0 mi NNW 6.9 mph - N/A   Clear
2:53 PM 64.0 °F 37.9 °F 38% 30.15 in 10.0 mi Variable 6.9 mph - N/A   Clear
3:53 PM 63.0 °F 37.9 °F 40% 30.14 in 10.0 mi NNW 5.8 mph - N/A   Clear
4:53 PM 62.1 °F 37.9 °F 41% 30.15 in 10.0 mi NW 6.9 mph - N/A   Clear
6:53 PM 53.1 °F 39.0 °F 59% 30.19 in 10.0 mi NNW 6.9 mph - N/A   Clear
7:53 PM 50.0 °F 37.9 °F 63% 30.19 in 10.0 mi North 8.1 mph - N/A   Clear
8:53 PM 48.9 °F 39.0 °F 69% 30.21 in 10.0 mi North 6.9 mph - N/A   Clear
10:53 PM 46.0 °F 39.0 °F 76% 30.23 in 10.0 mi Calm Calm - N/A   Clear